Weather History for Jonesboro, AR

Change the Weather History Date:

Friday, May 10, 2013

  Actual Average Record
Temperature  
Mean Temperature 71 °F 67 °F  
Max Temperature 77 °F 78 °F 91 °F (1962)
Min Temperature 64 °F 57 °F 36 °F (1966)
Degree Days  
Heating Degree Days 0 2  
Month to date heating degree days 59 22  
Since 1 July heating degree days 3544 3637  
Cooling Degree Days 6 4  
Month to date cooling degree days 18 31  
Year to date cooling degree days 67 78  
Growing Degree Days 20 (Base 50)    
Moisture  
Dew Point 63 °F    
Average Humidity 77    
Maximum Humidity 93    
Minimum Humidity 60    
Precipitation  
Precipitation 0.28 in 0.16 in 1.80 in (2010)
Month to date precipitation 4.56 1.92  
Year to date precipitation 21.09 18.59  
Sea Level Pressure  
Sea Level Pressure 29.91 in    
Wind  
Wind Speed 6 mph (West)    
Max Wind Speed 23 mph    
Max Gust Speed 30 mph    
Visibility 10 miles    
Events      
T = Trace of Precipitation, MM = Missing Value Source: NWS Daily Summary

Daily Weather History Graph

Daily Weather History Graph

Search for Another Location

Airport:

Trip Planner

Search our weather history database for the weather conditions in past years. The results will help you decide how hot, cold, wet, or windy it might be!

Date:

Astronomy

May. 10, 2013 Rise Set
Actual Time 6:01 AM CDT 7:57 PM CDT
Civil Twilight 5:33 AM CDT 8:25 PM CDT
Nautical Twilight 4:59 AM CDT 8:59 PM CDT
Astronomical Twilight 4:22 AM CDT 9:36 PM CDT
Moon 6:25 AM CDT (5/10) 8:46 PM CDT (5/10)
Length of Visible Light 14h 52m
Length of Day
13h 56m
New Moon, 0% of the Moon is Illuminated
May 10
New Moon
May 17
First Quarter
May 24
Full
May 31
Last Quarter
Jun 8
New

Hourly Weather History & Observations

Time (CDT) Temp. Dew Point Humidity Pressure Visibility Wind Dir Wind Speed Gust Speed Precip Events Conditions
7:53 AM 64.9 °F 63.0 °F 93% 29.91 in 10.0 mi South 4.6 mph - N/A   Overcast
8:27 AM 66.2 °F 62.6 °F 88% 29.92 in 10.0 mi WSW 3.5 mph - N/A   Overcast
8:53 AM 66.0 °F 63.0 °F 90% 29.92 in 10.0 mi SW 3.5 mph - N/A   Overcast
9:51 AM 68.0 °F 64.4 °F 88% 29.93 in 10.0 mi West 4.6 mph - N/A   Overcast
9:53 AM 68.0 °F 64.0 °F 87% 29.93 in 10.0 mi WSW 4.6 mph - N/A   Overcast
10:28 AM 69.8 °F 64.4 °F 83% 29.93 in 10.0 mi NNW 4.6 mph - N/A   Overcast
10:53 AM 71.1 °F 64.0 °F 78% 29.93 in 10.0 mi West 3.5 mph - N/A   Mostly Cloudy
11:53 AM 73.0 °F 64.0 °F 73% 29.93 in 10.0 mi Calm Calm - N/A   Mostly Cloudy
12:53 PM 73.9 °F 64.0 °F 71% 29.92 in 10.0 mi West 6.9 mph - N/A   Mostly Cloudy
1:53 PM 75.9 °F 63.0 °F 64% 29.90 in 9.0 mi Variable 4.6 mph - N/A   Partly Cloudy
2:53 PM 77.0 °F 62.1 °F 60% 29.88 in 10.0 mi SW 10.4 mph - N/A   Partly Cloudy
3:53 PM 77.0 °F 62.1 °F 60% 29.88 in 10.0 mi West 9.2 mph - N/A   Partly Cloudy
4:53 PM 75.0 °F 62.1 °F 64% 29.87 in 9.0 mi West 6.9 mph - N/A   Partly Cloudy
5:53 PM 73.0 °F 62.1 °F 68% 29.86 in 10.0 mi West 4.6 mph - N/A   Clear
6:53 PM 73.0 °F 62.1 °F 68% 29.86 in 9.0 mi West 4.6 mph - N/A   Clear
7:53 PM 72.0 °F 62.1 °F 71% 29.88 in 9.0 mi WSW 3.5 mph - N/A   Clear
8:53 PM 68.0 °F 62.1 °F 81% 29.89 in 10.0 mi West 5.8 mph - N/A   Clear
9:53 PM 66.9 °F 62.1 °F 84% 29.93 in 10.0 mi WNW 5.8 mph - N/A   Clear
10:53 PM 68.0 °F 60.1 °F 76% 29.96 in 10.0 mi NNW 5.8 mph - N/A   Mostly Cloudy
11:53 PM 66.9 °F 57.0 °F 70% 29.97 in 10.0 mi North 5.8 mph - N/A   Overcast